Location: Bonningues
(50.7927°N, 2.0150°E)
Time: 17:13:33
(UTC+00:00)

Meteor 1-23 Rocket - Pass Details

Date: 08 August 2020
Orbit: 836 x 889 km, 81.3° (Epoch: 25 September)

Event Time Altitude Azimuth Distance (km) Brightness Sun altitude
Rises 22:45:36 0° 348° (NNW) 3,510 8.9 -21.6°
Reaches altitude 10° 22:48:05 10° 350° (N) 2,568 7.8 -21.7°
Maximum altitude 22:53:56 75° 76° (ENE) 925 4.3 -22.0°
Enters shadow 22:55:45 46° 150° (SSE) 1,185 4.5 -22.1°
